Flag for Botswana Weather past 2 weeks in Francistown, Botswana

Now
52 °F

Clear.


Feels Like: 47 °F
Forecast: 44 / 75 °F
Wind: 13 mph from East

Location: Francistown Airport

Current Time: Aug 31, 2014 at 4:15:51 AM

Latest Report: Aug 31, 2014 at 4:00 AM


Visibility: 10 mi

Pressure: 30.27 "Hg

Humidity: 32%

Dew point: 23 °F

Location of FrancistownLocation

Historic Weather in Francistown — Graph

°F

Francistown temperature yesterday

Maximum temperature yesterday: 72 °F (at 2:00 PM)
Minimum temperature yesterday: 28 °F (at 5:00 AM)
Average temperature yesterday: 54 °F

Past Weeks' High & Low Weather Summary

 TemperatureHumidityPressure
High91 °F (Aug 28, 2:00 PM)100% (Aug 18, 7:00 AM)30.39 "Hg (Aug 18, 7:00 AM)
Low28 °F (Aug 23, 7:00 AM)5% (Aug 24, 1:00 PM)29.89 "Hg (Aug 28, 3:00 PM)
Average63 °F31%30.13 "Hg
* Reported Aug 16 5:00 AM — Aug 31 3:00 AM, Francistown, Weather by CustomWeather, © 2014

Note: Actual official high and low records may vary slightly from our data, if they occured in-between our weather recording intervals... More about our weather records

Advertising

Francistown weather history for previous 24 hours

 ConditionsComfort  
Time TempWeatherWind HumidityBarometerVisibility
3:00 AM
Aug 31
46 °FClear.7 mph37%30.27 "Hg10 mi
2:00 AM48 °FClear.9 mph34%30.27 "Hg10 mi
1:00 AM52 °FClear.12 mph32%30.30 "Hg10 mi
12:00 AM54 °FClear.13 mph30%30.30 "Hg10 mi
11:00 PM
Aug 30
50 °FClear.9 mph35%30.30 "Hg10 mi
10:00 PM55 °FClear.10 mph28%30.30 "Hg10 mi
9:00 PM55 °FClear.9 mph28%30.27 "Hg10 mi
8:00 PM59 °FClear.9 mph25%30.27 "Hg10 mi
7:00 PM63 °FClear.9 mph20%30.24 "Hg10 mi
6:00 PM66 °FClear.16 mph18%30.24 "Hg10 mi
5:00 PM72 °FClear.9 mph15%30.21 "Hg10 mi
4:00 PM72 °FSunny.17 mph16%30.21 "Hg10 mi
3:00 PM72 °FPassing clouds.8 mph16%30.21 "HgN/A
2:00 PM72 °FPassing clouds.18 mph16%30.21 "HgN/A
1:00 PM70 °FSunny.15 mph17%30.21 "Hg10 mi
12:00 PM68 °FSunny.17 mph18%30.24 "Hg10 mi
11:00 AM64 °FSunny.14 mph18%30.27 "Hg10 mi
10:00 AM63 °FSunny.15 mph17%30.30 "Hg10 mi
9:00 AM55 °FSunny.17 mph18%30.30 "Hg10 mi
8:00 AM50 °FSunny.17 mph20%30.27 "Hg10 mi
7:00 AM30 °FSunny.3 mph47%30.27 "Hg10 mi
6:00 AM30 °FSunny.1 mph43%30.24 "Hg10 mi
5:00 AM28 °FClear.2 mph51%30.24 "Hg10 mi
4:00 AM34 °FClear.2 mph32%30.24 "Hg10 mi
Weather by CustomWeather, © 2014

See weather overviewHow to use our weather pages